Time,TemperatureF,DewpointF,PressureIn,WindDirection,WindDirectionDegrees,WindSpeedMPH,WindSpeedGustMPH,Humidity,HourlyPrecipIn,Conditions,Clouds,dailyrainin,SoftwareType,DateUTC
2013-06-17 00:01:00,71.8,64.0,29.35,SW,217,0.0,0.0,78,0.00,,,-99.99,wx200d/1.3,2013-06-17 04:01:00,
2013-06-17 00:06:00,71.6,64.0,29.35,West,268,0.0,0.0,77,0.00,,,-99.99,wx200d/1.3,2013-06-17 04:06:00,
2013-06-17 00:11:00,71.4,64.0,29.35,West,268,0.0,0.0,77,0.00,,,-99.99,wx200d/1.3,2013-06-17 04:11:00,
2013-06-17 00:17:00,71.2,64.0,29.35,West,267,0.0,0.0,77,0.00,,,-99.99,wx200d/1.3,2013-06-17 04:17:00,
2013-06-17 00:22:00,70.9,64.0,29.35,West,268,0.0,0.0,77,0.00,,,-99.99,wx200d/1.3,2013-06-17 04:22:00,
2013-06-17 00:27:00,70.7,64.0,29.35,West,268,0.0,0.0,77,0.00,,,-99.99,wx200d/1.3,2013-06-17 04:27:00,
2013-06-17 00:32:00,70.5,63.0,29.35,West,268,0.0,0.0,77,0.00,,,-99.99,wx200d/1.3,2013-06-17 04:32:00,
2013-06-17 00:37:00,70.2,63.0,29.35,West,267,0.0,0.0,78,0.00,,,-99.99,wx200d/1.3,2013-06-17 04:37:00,
2013-06-17 00:42:00,70.0,63.0,29.35,West,267,0.0,0.0,79,0.00,,,-99.99,wx200d/1.3,2013-06-17 04:42:00,
2013-06-17 00:47:00,70.0,63.0,29.35,West,267,0.0,0.0,80,0.00,,,-99.99,wx200d/1.3,2013-06-17 04:47:00,
2013-06-17 00:52:00,70.0,64.0,29.35,West,267,0.0,0.0,81,0.00,,,-99.99,wx200d/1.3,2013-06-17 04:52:00,
2013-06-17 00:57:00,70.2,64.0,29.35,West,267,0.0,0.0,81,0.00,,,-99.99,wx200d/1.3,2013-06-17 04:57:00,
2013-06-17 01:02:00,70.0,64.0,29.35,West,267,0.0,0.0,81,0.00,,,-99.99,wx200d/1.3,2013-06-17 05:02:00,
2013-06-17 01:07:00,69.8,64.0,29.35,West,267,0.0,0.0,82,0.00,,,-99.99,wx200d/1.3,2013-06-17 05:07:00,
2013-06-17 01:12:00,69.6,64.0,29.35,West,267,0.0,0.0,82,0.00,,,-99.99,wx200d/1.3,2013-06-17 05:12:00,
2013-06-17 01:17:00,69.8,64.0,29.35,West,267,0.0,0.0,83,0.00,,,-99.99,wx200d/1.3,2013-06-17 05:17:00,
2013-06-17 01:22:00,69.8,64.0,29.35,ESE,119,0.0,0.0,83,0.00,,,-99.99,wx200d/1.3,2013-06-17 05:22:00,
2013-06-17 01:27:00,69.6,64.0,29.35,ESE,119,0.0,0.0,84,0.00,,,-99.99,wx200d/1.3,2013-06-17 05:27:00,
2013-06-17 01:32:00,69.6,64.0,29.35,ESE,119,0.0,0.0,84,0.00,,,-99.99,wx200d/1.3,2013-06-17 05:32:00,
2013-06-17 01:37:00,69.6,64.0,29.35,ESE,120,0.0,0.0,84,0.00,,,-99.99,wx200d/1.3,2013-06-17 05:37:00,
2013-06-17 01:42:00,69.6,64.0,29.35,ESE,119,0.0,0.0,84,0.00,,,-99.99,wx200d/1.3,2013-06-17 05:42:00,
2013-06-17 01:47:00,69.6,64.0,29.35,ESE,120,0.0,0.0,85,0.00,,,-99.99,wx200d/1.3,2013-06-17 05:47:00,
2013-06-17 01:52:00,69.6,64.0,29.35,ESE,119,0.0,0.0,85,0.00,,,-99.99,wx200d/1.3,2013-06-17 05:52:00,
2013-06-17 01:57:00,69.4,64.0,29.35,ESE,115,0.0,0.0,85,0.00,,,-99.99,wx200d/1.3,2013-06-17 05:57:00,
2013-06-17 02:02:00,69.3,64.0,29.35,ESE,103,0.0,0.0,85,0.00,,,-99.99,wx200d/1.3,2013-06-17 06:02:00,
2013-06-17 02:07:00,69.1,64.0,29.38,ESE,102,0.0,0.0,85,0.00,,,-99.99,wx200d/1.3,2013-06-17 06:07:00,
2013-06-17 02:12:00,68.9,64.0,29.38,ESE,108,0.0,0.0,85,0.00,,,-99.99,wx200d/1.3,2013-06-17 06:12:00,
2013-06-17 02:18:00,69.1,64.0,29.38,ESE,114,0.0,0.0,85,0.00,,,-99.99,wx200d/1.3,2013-06-17 06:18:00,
2013-06-17 02:23:00,69.1,66.0,29.35,ESE,114,0.0,0.0,86,0.00,,,-99.99,wx200d/1.3,2013-06-17 06:23:00,
2013-06-17 02:28:00,69.1,66.0,29.35,ESE,115,0.0,0.0,86,0.00,,,-99.99,wx200d/1.3,2013-06-17 06:28:00,
2013-06-17 02:33:00,69.3,66.0,29.35,ESE,114,0.0,0.0,86,0.00,,,-99.99,wx200d/1.3,2013-06-17 06:33:00,
2013-06-17 02:38:00,69.3,66.0,29.35,ESE,115,0.0,0.0,86,0.00,,,-99.99,wx200d/1.3,2013-06-17 06:38:00,
2013-06-17 02:43:00,69.4,66.0,29.35,SSW,197,0.0,0.0,87,0.00,,,-99.99,wx200d/1.3,2013-06-17 06:43:00,
2013-06-17 02:48:00,69.6,66.0,29.35,South,184,0.0,0.0,87,0.00,,,-99.99,wx200d/1.3,2013-06-17 06:48:00,
2013-06-17 02:53:00,70.0,66.0,29.35,SSE,168,0.0,0.0,88,0.00,,,-99.99,wx200d/1.3,2013-06-17 06:53:00,
2013-06-17 02:58:00,70.2,66.0,29.35,South,188,0.0,0.0,88,0.00,,,-99.99,wx200d/1.3,2013-06-17 06:58:00,
2013-06-17 03:03:00,70.3,66.0,29.35,SSW,208,0.0,0.0,87,0.00,,,-99.99,wx200d/1.3,2013-06-17 07:03:00,
2013-06-17 03:08:00,70.5,64.0,29.35,SSW,208,0.0,0.0,85,0.00,,,-99.99,wx200d/1.3,2013-06-17 07:08:00,
2013-06-17 03:13:00,70.5,64.0,29.35,SW,217,0.0,0.0,84,0.00,,,-99.99,wx200d/1.3,2013-06-17 07:13:00,
2013-06-17 03:18:00,70.5,64.0,29.35,SW,217,0.0,0.0,83,0.00,,,-99.99,wx200d/1.3,2013-06-17 07:18:00,
2013-06-17 03:23:00,70.5,64.0,29.35,SW,217,0.0,0.0,83,0.00,,,-99.99,wx200d/1.3,2013-06-17 07:23:00,
2013-06-17 03:28:00,70.5,64.0,29.35,SW,217,0.0,0.0,83,0.00,,,-99.99,wx200d/1.3,2013-06-17 07:28:00,
2013-06-17 03:33:00,70.5,64.0,29.35,SW,217,0.0,0.0,82,0.00,,,-99.99,wx200d/1.3,2013-06-17 07:33:00,
2013-06-17 03:38:00,70.5,64.0,29.35,SW,217,0.0,0.0,82,0.00,,,-99.99,wx200d/1.3,2013-06-17 07:38:00,
2013-06-17 03:43:00,70.5,64.0,29.35,SW,217,0.0,0.0,82,0.00,,,-99.99,wx200d/1.3,2013-06-17 07:43:00,
2013-06-17 03:48:00,70.5,64.0,29.35,SW,217,0.0,0.0,81,0.00,,,-99.99,wx200d/1.3,2013-06-17 07:48:00,
2013-06-17 03:53:00,70.5,64.0,29.35,SW,217,0.0,0.0,81,0.00,,,-99.99,wx200d/1.3,2013-06-17 07:53:00,
2013-06-17 03:58:00,70.5,63.0,29.35,SW,217,0.0,0.0,80,0.00,,,-99.99,wx200d/1.3,2013-06-17 07:58:00,
2013-06-17 04:04:00,70.5,63.0,29.35,SW,217,0.0,0.0,80,0.00,,,-99.99,wx200d/1.3,2013-06-17 08:04:00,
2013-06-17 04:09:00,70.5,63.0,29.35,SW,217,0.0,0.0,80,0.00,,,-99.99,wx200d/1.3,2013-06-17 08:09:00,
2013-06-17 04:14:00,70.5,63.0,29.35,SW,217,0.0,0.0,80,0.00,,,-99.99,wx200d/1.3,2013-06-17 08:14:00,
2013-06-17 04:19:00,70.5,63.0,29.35,SW,217,0.0,0.0,80,0.00,,,-99.99,wx200d/1.3,2013-06-17 08:19:00,
2013-06-17 04:24:00,70.3,63.0,29.38,SW,217,0.0,0.0,80,0.00,,,-99.99,wx200d/1.3,2013-06-17 08:24:00,
2013-06-17 04:29:00,70.3,63.0,29.38,SW,217,0.0,0.0,80,0.00,,,-99.99,wx200d/1.3,2013-06-17 08:29:00,
2013-06-17 04:34:00,70.2,63.0,29.38,SW,217,0.0,0.0,80,0.00,,,-99.99,wx200d/1.3,2013-06-17 08:34:00,
2013-06-17 04:39:00,70.2,63.0,29.38,SW,217,0.0,0.0,80,0.00,,,-99.99,wx200d/1.3,2013-06-17 08:39:00,
2013-06-17 04:44:00,70.0,63.0,29.38,SW,217,0.0,0.0,80,0.00,,,-99.99,wx200d/1.3,2013-06-17 08:44:00,
2013-06-17 04:49:00,70.0,63.0,29.38,SW,217,0.0,0.0,79,0.00,,,-99.99,wx200d/1.3,2013-06-17 08:49:00,
2013-06-17 04:54:00,69.8,63.0,29.38,SW,217,0.0,0.0,79,0.00,,,-99.99,wx200d/1.3,2013-06-17 08:54:00,
2013-06-17 04:59:00,69.8,63.0,29.38,SW,217,0.0,0.0,79,0.00,,,-99.99,wx200d/1.3,2013-06-17 08:59:00,
2013-06-17 05:05:00,69.8,63.0,29.38,SW,217,0.0,0.0,79,0.00,,,-99.99,wx200d/1.3,2013-06-17 09:05:00,
2013-06-17 05:10:00,69.6,63.0,29.38,SW,217,0.0,0.0,79,0.00,,,-99.99,wx200d/1.3,2013-06-17 09:10:00,
2013-06-17 05:15:00,69.4,63.0,29.38,SW,217,0.0,0.0,79,0.00,,,-99.99,wx200d/1.3,2013-06-17 09:15:00,
2013-06-17 05:20:00,69.4,63.0,29.38,SW,216,0.0,0.0,79,0.00,,,-99.99,wx200d/1.3,2013-06-17 09:20:00,
2013-06-17 05:25:00,69.4,63.0,29.38,SW,217,0.0,0.0,80,0.00,,,-99.99,wx200d/1.3,2013-06-17 09:25:00,
2013-06-17 05:30:00,69.4,63.0,29.38,SW,217,0.0,0.0,80,0.00,,,-99.99,wx200d/1.3,2013-06-17 09:30:00,
2013-06-17 05:35:00,69.4,63.0,29.38,SW,217,0.0,0.0,80,0.00,,,-99.99,wx200d/1.3,2013-06-17 09:35:00,
2013-06-17 05:40:00,69.6,63.0,29.38,SW,217,0.0,0.0,80,0.00,,,-99.99,wx200d/1.3,2013-06-17 09:40:00,
2013-06-17 05:45:00,69.8,63.0,29.38,SW,217,0.0,0.0,80,0.00,,,-99.99,wx200d/1.3,2013-06-17 09:45:00,
2013-06-17 05:50:00,69.8,63.0,29.38,SW,217,0.0,0.0,80,0.00,,,-99.99,wx200d/1.3,2013-06-17 09:50:00,
2013-06-17 05:55:00,70.0,63.0,29.38,SW,216,0.0,0.0,80,0.00,,,-99.99,wx200d/1.3,2013-06-17 09:55:00,
2013-06-17 06:00:00,69.8,63.0,29.38,SW,217,0.0,0.0,80,0.00,,,-99.99,wx200d/1.3,2013-06-17 10:00:00,
2013-06-17 06:05:00,69.6,63.0,29.38,SW,217,0.0,0.0,80,0.00,,,-99.99,wx200d/1.3,2013-06-17 10:05:00,
2013-06-17 06:10:00,69.4,63.0,29.38,SW,217,0.0,0.0,80,0.00,,,-99.99,wx200d/1.3,2013-06-17 10:10:00,
2013-06-17 06:15:00,69.4,63.0,29.38,SW,217,0.0,0.0,80,0.00,,,-99.99,wx200d/1.3,2013-06-17 10:15:00,
2013-06-17 06:20:00,69.4,63.0,29.38,SW,217,0.0,0.0,80,0.00,,,-99.99,wx200d/1.3,2013-06-17 10:20:00,
2013-06-17 06:25:00,69.3,63.0,29.38,SW,217,0.0,0.0,80,0.00,,,-99.99,wx200d/1.3,2013-06-17 10:25:00,
2013-06-17 06:30:00,69.3,63.0,29.38,SW,217,0.0,0.0,80,0.00,,,-99.99,wx200d/1.3,2013-06-17 10:30:00,
2013-06-17 06:35:00,69.4,63.0,29.38,SW,217,0.0,0.0,80,0.00,,,-99.99,wx200d/1.3,2013-06-17 10:35:00,
2013-06-17 06:40:00,69.6,63.0,29.38,SW,217,0.0,0.0,80,0.00,,,-99.99,wx200d/1.3,2013-06-17 10:40:00,
2013-06-17 06:45:00,69.8,64.0,29.38,SW,217,0.0,0.0,81,0.00,,,-99.99,wx200d/1.3,2013-06-17 10:45:00,
2013-06-17 06:50:00,70.2,64.0,29.38,SW,217,0.0,0.0,81,0.00,,,-99.99,wx200d/1.3,2013-06-17 10:50:00,
2013-06-17 06:55:00,70.3,64.0,29.38,SW,215,0.0,0.0,81,0.00,,,-99.99,wx200d/1.3,2013-06-17 10:55:00,
2013-06-17 07:00:00,70.5,64.0,29.38,SW,215,0.0,0.0,81,0.00,,,-99.99,wx200d/1.3,2013-06-17 11:00:00,
2013-06-17 07:05:00,70.9,66.0,29.38,SW,215,0.0,0.0,81,0.00,,,-99.99,wx200d/1.3,2013-06-17 11:05:00,
2013-06-17 07:10:00,71.1,64.0,29.41,WSW,245,0.0,0.0,80,0.00,,,-99.99,wx200d/1.3,2013-06-17 11:10:00,
2013-06-17 07:15:00,71.4,64.0,29.41,WSW,245,0.0,0.0,79,0.00,,,-99.99,wx200d/1.3,2013-06-17 11:15:00,
2013-06-17 07:20:00,71.4,64.0,29.41,SW,225,0.0,0.0,76,0.00,,,-99.99,wx200d/1.3,2013-06-17 11:20:00,
2013-06-17 07:26:00,71.6,64.0,29.41,WSW,249,0.0,0.0,76,0.00,,,-99.99,wx200d/1.3,2013-06-17 11:26:00,
2013-06-17 07:31:00,71.8,64.0,29.41,WSW,243,0.0,0.0,76,0.00,,,-99.99,wx200d/1.3,2013-06-17 11:31:00,
2013-06-17 07:36:00,71.8,63.0,29.41,WSW,238,0.0,0.0,75,0.00,,,-99.99,wx200d/1.3,2013-06-17 11:36:00,
2013-06-17 07:41:00,71.8,63.0,29.41,SW,236,0.0,0.0,75,0.00,,,-99.99,wx200d/1.3,2013-06-17 11:41:00,
2013-06-17 07:46:00,72.0,63.0,29.41,WSW,239,0.0,0.0,75,0.00,,,-99.99,wx200d/1.3,2013-06-17 11:46:00,
2013-06-17 07:51:00,72.0,63.0,29.41,SW,229,0.0,0.0,75,0.00,,,-99.99,wx200d/1.3,2013-06-17 11:51:00,
2013-06-17 07:56:00,72.1,63.0,29.41,SW,227,0.0,0.0,75,0.00,,,-99.99,wx200d/1.3,2013-06-17 11:56:00,
2013-06-17 08:01:00,72.5,64.0,29.41,West,265,0.0,0.0,75,0.00,,,-99.99,wx200d/1.3,2013-06-17 12:01:00,
2013-06-17 08:06:00,72.7,64.0,29.41,WSW,257,0.0,0.0,74,0.00,,,-99.99,wx200d/1.3,2013-06-17 12:06:00,
2013-06-17 08:11:00,72.9,64.0,29.41,SW,234,0.0,0.0,72,0.00,,,-99.99,wx200d/1.3,2013-06-17 12:11:00,
2013-06-17 08:16:00,72.9,64.0,29.41,West,268,0.0,0.0,72,0.00,,,-99.99,wx200d/1.3,2013-06-17 12:16:00,
2013-06-17 08:21:00,73.2,64.0,29.41,SW,234,0.0,0.0,72,0.00,,,-99.99,wx200d/1.3,2013-06-17 12:21:00,
2013-06-17 08:26:00,73.6,64.0,29.41,WSW,238,0.0,0.0,72,0.00,,,-99.99,wx200d/1.3,2013-06-17 12:26:00,
2013-06-17 08:31:00,73.8,63.0,29.41,WSW,250,0.0,0.0,70,0.00,,,-99.99,wx200d/1.3,2013-06-17 12:31:00,
2013-06-17 08:36:00,74.3,64.0,29.41,WSW,240,0.0,0.0,70,0.00,,,-99.99,wx200d/1.3,2013-06-17 12:36:00,
2013-06-17 08:41:00,74.7,64.0,29.41,WSW,240,0.0,0.0,68,0.00,,,-99.99,wx200d/1.3,2013-06-17 12:41:00,
2013-06-17 08:46:00,75.0,64.0,29.41,WSW,237,0.0,0.0,67,0.00,,,-99.99,wx200d/1.3,2013-06-17 12:46:00,
2013-06-17 08:51:00,75.4,63.0,29.41,SW,234,0.0,0.0,65,0.00,,,-99.99,wx200d/1.3,2013-06-17 12:51:00,
2013-06-17 08:56:00,75.9,63.0,29.41,WSW,256,0.0,0.0,63,0.00,,,-99.99,wx200d/1.3,2013-06-17 12:56:00,
2013-06-17 09:01:00,76.1,63.0,29.41,SW,231,0.0,0.0,61,0.00,,,-99.99,wx200d/1.3,2013-06-17 13:01:00,
2013-06-17 09:06:00,76.3,63.0,29.41,WSW,256,0.0,0.0,59,0.00,,,-99.99,wx200d/1.3,2013-06-17 13:06:00,
2013-06-17 09:11:00,76.8,63.0,29.41,WSW,245,0.0,0.0,60,0.00,,,-99.99,wx200d/1.3,2013-06-17 13:11:00,
2013-06-17 09:16:00,77.4,59.0,29.41,WSW,256,0.0,0.0,55,0.00,,,-99.99,wx200d/1.3,2013-06-17 13:16:00,
2013-06-17 09:21:00,77.9,63.0,29.41,West,263,0.0,0.0,58,0.00,,,-99.99,wx200d/1.3,2013-06-17 13:21:00,
2013-06-17 09:26:00,78.1,61.0,29.41,WNW,282,0.0,0.0,54,0.00,,,-99.99,wx200d/1.3,2013-06-17 13:26:00,
2013-06-17 09:31:00,78.6,59.0,29.41,WSW,250,0.0,0.0,51,0.00,,,-99.99,wx200d/1.3,2013-06-17 13:31:00,
2013-06-17 09:36:00,78.6,59.0,29.41,NW,312,0.0,0.0,50,0.00,,,-99.99,wx200d/1.3,2013-06-17 13:36:00,
2013-06-17 09:41:00,78.4,59.0,29.41,WSW,250,0.0,0.0,52,0.00,,,-99.99,wx200d/1.3,2013-06-17 13:41:00,
2013-06-17 09:46:00,78.6,61.0,29.41,WSW,247,0.0,0.0,52,0.00,,,-99.99,wx200d/1.3,2013-06-17 13:46:00,
2013-06-17 09:52:00,79.2,57.0,29.38,West,263,0.0,0.0,49,0.00,,,-99.99,wx200d/1.3,2013-06-17 13:52:00,
2013-06-17 09:57:00,79.2,57.0,29.38,NW,321,0.0,0.0,47,0.00,,,-99.99,wx200d/1.3,2013-06-17 13:57:00,
2013-06-17 10:02:00,79.5,57.0,29.38,WSW,240,0.0,0.0,49,0.00,,,-99.99,wx200d/1.3,2013-06-17 14:02:00,
2013-06-17 10:07:00,79.7,59.0,29.38,WSW,243,0.0,0.0,47,0.00,,,-99.99,wx200d/1.3,2013-06-17 14:07:00,
2013-06-17 10:12:00,79.5,57.0,29.38,West,272,0.0,0.0,48,0.00,,,-99.99,wx200d/1.3,2013-06-17 14:12:00,
2013-06-17 10:17:00,79.5,57.0,29.38,WSW,256,0.0,0.0,47,0.00,,,-99.99,wx200d/1.3,2013-06-17 14:17:00,
2013-06-17 10:22:00,79.7,55.0,29.38,West,273,0.0,0.0,43,0.00,,,-99.99,wx200d/1.3,2013-06-17 14:22:00,
2013-06-17 10:27:00,80.1,59.0,29.38,WSW,256,0.0,0.0,47,0.00,,,-99.99,wx200d/1.3,2013-06-17 14:27:00,
2013-06-17 10:32:00,80.2,57.0,29.38,WSW,248,0.0,0.0,46,0.00,,,-99.99,wx200d/1.3,2013-06-17 14:32:00,
2013-06-17 10:37:00,79.9,57.0,29.38,WSW,247,0.0,0.0,45,0.00,,,-99.99,wx200d/1.3,2013-06-17 14:37:00,
2013-06-17 10:42:00,80.1,57.0,29.38,West,276,0.0,0.0,44,0.00,,,-99.99,wx200d/1.3,2013-06-17 14:42:00,
2013-06-17 10:47:00,80.2,55.0,29.38,WSW,248,0.0,0.0,43,0.00,,,-99.99,wx200d/1.3,2013-06-17 14:47:00,
2013-06-17 10:52:00,80.6,57.0,29.38,WSW,238,0.0,0.0,44,0.00,,,-99.99,wx200d/1.3,2013-06-17 14:52:00,
2013-06-17 10:57:00,81.0,57.0,29.38,WSW,247,0.0,0.0,46,0.00,,,-99.99,wx200d/1.3,2013-06-17 14:57:00,
2013-06-17 11:02:00,80.8,55.0,29.38,West,267,0.0,0.0,43,0.00,,,-99.99,wx200d/1.3,2013-06-17 15:02:00,
2013-06-17 11:07:00,81.0,55.0,29.38,WNW,292,0.0,0.0,43,0.00,,,-99.99,wx200d/1.3,2013-06-17 15:07:00,
2013-06-17 11:12:00,81.1,55.0,29.38,WSW,240,0.0,0.0,42,0.00,,,-99.99,wx200d/1.3,2013-06-17 15:12:00,
2013-06-17 11:17:00,81.0,55.0,29.38,SW,234,0.0,0.0,42,0.00,,,-99.99,wx200d/1.3,2013-06-17 15:17:00,
2013-06-17 11:22:00,81.1,57.0,29.38,WSW,246,0.0,0.0,45,0.00,,,-99.99,wx200d/1.3,2013-06-17 15:22:00,
2013-06-17 11:27:00,81.5,57.0,29.38,WSW,258,0.0,0.0,43,0.00,,,-99.99,wx200d/1.3,2013-06-17 15:27:00,
2013-06-17 11:32:00,81.9,57.0,29.38,West,279,0.0,0.0,41,0.00,,,-99.99,wx200d/1.3,2013-06-17 15:32:00,
2013-06-17 11:37:00,82.0,57.0,29.38,SW,228,0.0,0.0,43,0.00,,,-99.99,wx200d/1.3,2013-06-17 15:37:00,
2013-06-17 11:42:00,82.0,57.0,29.38,SW,216,0.0,0.0,42,0.00,,,-99.99,wx200d/1.3,2013-06-17 15:42:00,
2013-06-17 11:47:00,82.6,57.0,29.38,West,270,0.0,0.0,42,0.00,,,-99.99,wx200d/1.3,2013-06-17 15:47:00,
2013-06-17 11:52:00,82.6,55.0,29.38,West,271,0.0,0.0,40,0.00,,,-99.99,wx200d/1.3,2013-06-17 15:52:00,
2013-06-17 11:57:00,82.4,55.0,29.38,WSW,249,0.0,0.0,39,0.00,,,-99.99,wx200d/1.3,2013-06-17 15:57:00,
2013-06-17 12:02:00,82.8,55.0,29.38,WSW,237,0.0,0.0,40,0.00,,,-99.99,wx200d/1.3,2013-06-17 16:02:00,
2013-06-17 12:07:00,83.3,57.0,29.38,WSW,255,0.0,0.0,39,0.00,,,-99.99,wx200d/1.3,2013-06-17 16:07:00,
2013-06-17 12:12:00,83.5,57.0,29.38,West,264,0.0,0.0,39,0.00,,,-99.99,wx200d/1.3,2013-06-17 16:12:00,
2013-06-17 12:17:00,83.5,57.0,29.38,SW,230,0.0,0.0,39,0.00,,,-99.99,wx200d/1.3,2013-06-17 16:17:00,
2013-06-17 12:22:00,82.9,57.0,29.38,WSW,238,0.0,0.0,41,0.00,,,-99.99,wx200d/1.3,2013-06-17 16:22:00,
2013-06-17 12:27:00,82.6,54.0,29.38,WSW,253,0.0,0.0,37,0.00,,,-99.99,wx200d/1.3,2013-06-17 16:27:00,
2013-06-17 12:32:00,83.3,54.0,29.38,SW,234,0.0,0.0,34,0.00,,,-99.99,wx200d/1.3,2013-06-17 16:32:00,
2013-06-17 12:37:00,84.0,55.0,29.38,SW,216,0.0,0.0,38,0.00,,,-99.99,wx200d/1.3,2013-06-17 16:37:00,
2013-06-17 12:42:00,84.2,57.0,29.38,WSW,248,0.0,0.0,40,0.00,,,-99.99,wx200d/1.3,2013-06-17 16:42:00,
2013-06-17 12:47:00,83.8,55.0,29.38,WSW,244,0.0,0.0,37,0.00,,,-99.99,wx200d/1.3,2013-06-17 16:47:00,
2013-06-17 12:52:00,83.3,55.0,29.38,South,184,0.0,0.0,38,0.00,,,-99.99,wx200d/1.3,2013-06-17 16:52:00,
2013-06-17 12:57:00,82.9,57.0,29.38,SW,232,0.0,0.0,41,0.00,,,-99.99,wx200d/1.3,2013-06-17 16:57:00,
2013-06-17 13:03:00,82.4,57.0,29.38,SW,235,0.0,0.0,43,0.00,,,-99.99,wx200d/1.3,2013-06-17 17:03:00,
2013-06-17 13:08:00,81.5,59.0,29.38,WSW,244,0.0,0.0,44,0.00,,,-99.99,wx200d/1.3,2013-06-17 17:08:00,
2013-06-17 13:13:00,81.1,59.0,29.38,West,270,0.0,0.0,49,0.00,,,-99.99,wx200d/1.3,2013-06-17 17:13:00,
2013-06-17 13:18:00,81.1,59.0,29.38,NNW,328,0.0,0.0,49,0.00,,,-99.99,wx200d/1.3,2013-06-17 17:18:00,
2013-06-17 13:23:00,81.5,63.0,29.38,WNW,285,0.0,0.0,51,0.00,,,-99.99,wx200d/1.3,2013-06-17 17:23:00,
2013-06-17 13:28:00,82.6,61.0,29.38,WNW,292,0.0,0.0,49,0.00,,,-99.99,wx200d/1.3,2013-06-17 17:28:00,
2013-06-17 13:33:00,83.3,61.0,29.38,WSW,243,0.0,0.0,43,0.00,,,-99.99,wx200d/1.3,2013-06-17 17:33:00,
2013-06-17 13:38:00,83.7,57.0,29.38,WSW,253,0.0,0.0,41,0.00,,,-99.99,wx200d/1.3,2013-06-17 17:38:00,
2013-06-17 13:43:00,83.8,55.0,29.38,WSW,254,0.0,0.0,38,0.00,,,-99.99,wx200d/1.3,2013-06-17 17:43:00,
2013-06-17 13:48:00,84.0,54.0,29.38,WSW,247,0.0,0.0,37,0.00,,,-99.99,wx200d/1.3,2013-06-17 17:48:00,
2013-06-17 13:53:00,84.2,55.0,29.35,WSW,245,0.0,0.0,36,0.00,,,-99.99,wx200d/1.3,2013-06-17 17:53:00,
2013-06-17 13:58:00,84.4,52.0,29.35,SW,226,0.0,0.0,33,0.00,,,-99.99,wx200d/1.3,2013-06-17 17:58:00,
2013-06-17 14:03:00,84.9,54.0,29.35,SW,225,0.0,0.0,36,0.00,,,-99.99,wx200d/1.3,2013-06-17 18:03:00,
2013-06-17 14:08:00,84.9,55.0,29.35,WSW,240,0.0,0.0,37,0.00,,,-99.99,wx200d/1.3,2013-06-17 18:08:00,
2013-06-17 14:13:00,85.3,57.0,29.35,WSW,238,0.0,0.0,35,0.00,,,-99.99,wx200d/1.3,2013-06-17 18:13:00,
2013-06-17 14:18:00,85.5,55.0,29.35,WSW,250,0.0,0.0,34,0.00,,,-99.99,wx200d/1.3,2013-06-17 18:18:00,
2013-06-17 14:23:00,85.6,54.0,29.35,SW,223,0.0,0.0,33,0.00,,,-99.99,wx200d/1.3,2013-06-17 18:23:00,
2013-06-17 14:28:00,85.5,55.0,29.35,SW,229,0.0,0.0,35,0.00,,,-99.99,wx200d/1.3,2013-06-17 18:28:00,
2013-06-17 14:33:00,85.6,54.0,29.35,SW,234,0.0,0.0,32,0.00,,,-99.99,wx200d/1.3,2013-06-17 18:33:00,
2013-06-17 14:38:00,86.2,55.0,29.35,WSW,248,0.0,0.0,35,0.00,,,-99.99,wx200d/1.3,2013-06-17 18:38:00,
2013-06-17 14:43:00,85.5,54.0,29.35,SW,236,0.0,0.0,34,0.00,,,-99.99,wx200d/1.3,2013-06-17 18:43:00,
2013-06-17 14:48:00,85.3,55.0,29.35,West,259,0.0,0.0,34,0.00,,,-99.99,wx200d/1.3,2013-06-17 18:48:00,
2013-06-17 14:53:00,86.0,52.0,29.35,SW,233,0.0,0.0,31,0.00,,,-99.99,wx200d/1.3,2013-06-17 18:53:00,
2013-06-17 14:58:00,86.2,54.0,29.35,WSW,239,0.0,0.0,32,0.00,,,-99.99,wx200d/1.3,2013-06-17 18:58:00,
2013-06-17 15:03:00,86.0,54.0,29.35,SW,224,0.0,0.0,32,0.00,,,-99.99,wx200d/1.3,2013-06-17 19:03:00,
2013-06-17 15:08:00,86.4,54.0,29.35,SW,235,0.0,0.0,32,0.00,,,-99.99,wx200d/1.3,2013-06-17 19:08:00,
2013-06-17 15:13:00,86.4,52.0,29.35,WSW,237,0.0,0.0,30,0.00,,,-99.99,wx200d/1.3,2013-06-17 19:13:00,
2013-06-17 15:18:00,86.9,57.0,29.35,West,264,0.0,0.0,34,0.00,,,-99.99,wx200d/1.3,2013-06-17 19:18:00,
2013-06-17 15:23:00,86.9,54.0,29.35,WSW,243,0.0,0.0,32,0.00,,,-99.99,wx200d/1.3,2013-06-17 19:23:00,
2013-06-17 15:28:00,86.4,54.0,29.35,SW,224,0.0,0.0,32,0.00,,,-99.99,wx200d/1.3,2013-06-17 19:28:00,
2013-06-17 15:33:00,86.4,54.0,29.35,SW,235,0.0,0.0,32,0.00,,,-99.99,wx200d/1.3,2013-06-17 19:33:00,
2013-06-17 15:38:00,86.0,54.0,29.35,WSW,256,0.0,0.0,31,0.00,,,-99.99,wx200d/1.3,2013-06-17 19:38:00,
2013-06-17 15:43:00,85.5,55.0,29.35,SW,232,0.0,0.0,35,0.00,,,-99.99,wx200d/1.3,2013-06-17 19:43:00,
2013-06-17 15:48:00,84.7,55.0,29.35,SW,227,0.0,0.0,37,0.00,,,-99.99,wx200d/1.3,2013-06-17 19:48:00,
2013-06-17 15:54:00,84.2,57.0,29.35,WSW,238,0.0,0.0,39,0.00,,,-99.99,wx200d/1.3,2013-06-17 19:54:00,
2013-06-17 15:59:00,84.0,57.0,29.35,WSW,250,0.0,0.0,40,0.00,,,-99.99,wx200d/1.3,2013-06-17 19:59:00,
2013-06-17 16:04:00,83.1,59.0,29.35,WSW,242,0.0,0.0,45,0.00,,,-99.99,wx200d/1.3,2013-06-17 20:04:00,
2013-06-17 16:09:00,81.0,55.0,29.35,WNW,291,17.2,24.8,43,0.00,,,-99.99,wx200d/1.3,2013-06-17 20:09:00,
2013-06-17 16:14:00,75.7,63.0,29.35,WSW,246,11.2,19.5,63,0.00,,,-99.99,wx200d/1.3,2013-06-17 20:14:00,
2013-06-17 16:19:00,73.9,63.0,29.35,SSW,199,0.0,14.3,71,0.00,,,-99.99,wx200d/1.3,2013-06-17 20:19:00,
2013-06-17 16:24:00,73.8,66.0,29.35,WSW,238,6.3,7.4,80,0.00,,,-99.99,wx200d/1.3,2013-06-17 20:24:00,
2013-06-17 16:29:00,74.1,68.0,29.35,SSW,201,0.0,6.3,82,0.00,,,-99.99,wx200d/1.3,2013-06-17 20:29:00,
2013-06-17 16:34:00,74.3,68.0,29.35,South,188,0.0,6.7,80,0.00,,,-99.99,wx200d/1.3,2013-06-17 20:34:00,
2013-06-17 16:39:00,74.3,66.0,29.35,SSW,195,0.0,4.0,72,0.00,,,-99.99,wx200d/1.3,2013-06-17 20:39:00,
2013-06-17 16:44:00,74.7,64.0,29.35,SSE,164,0.0,0.0,70,0.00,,,-99.99,wx200d/1.3,2013-06-17 20:44:00,
2013-06-17 16:49:00,75.4,64.0,29.35,East,98,0.0,2.7,71,0.00,,,-99.99,wx200d/1.3,2013-06-17 20:49:00,
2013-06-17 16:54:00,75.9,64.0,29.32,East,98,0.0,0.0,71,0.00,,,-99.99,wx200d/1.3,2013-06-17 20:54:00,
2013-06-17 16:59:00,76.3,66.0,29.32,SSE,160,0.0,0.0,69,0.00,,,-99.99,wx200d/1.3,2013-06-17 20:59:00,
2013-06-17 17:04:00,76.3,66.0,29.32,SSE,160,0.0,0.0,67,0.00,,,-99.99,wx200d/1.3,2013-06-17 21:04:00,
2013-06-17 17:09:00,76.3,64.0,29.32,SSW,201,0.0,0.0,65,0.00,,,-99.99,wx200d/1.3,2013-06-17 21:09:00,
2013-06-17 17:14:00,75.7,61.0,29.32,SSW,203,0.0,5.4,62,0.00,,,-99.99,wx200d/1.3,2013-06-17 21:14:00,
2013-06-17 17:19:00,75.7,63.0,29.32,South,169,0.0,9.2,65,0.00,,,-99.99,wx200d/1.3,2013-06-17 21:19:00,
2013-06-17 17:24:00,76.3,66.0,29.35,South,181,8.3,9.6,67,0.00,,,-99.99,wx200d/1.3,2013-06-17 21:24:00,
2013-06-17 17:29:00,77.2,66.0,29.35,SW,225,4.5,8.3,69,0.00,,,-99.99,wx200d/1.3,2013-06-17 21:29:00,
2013-06-17 17:34:00,77.5,64.0,29.35,SW,221,6.9,9.6,63,0.00,,,-99.99,wx200d/1.3,2013-06-17 21:34:00,
2013-06-17 17:39:00,78.1,64.0,29.35,South,174,4.0,8.3,60,0.00,,,-99.99,wx200d/1.3,2013-06-17 21:39:00,
2013-06-17 17:44:00,78.6,61.0,29.35,SW,226,5.8,8.3,53,0.00,,,-99.99,wx200d/1.3,2013-06-17 21:44:00,
2013-06-17 17:49:00,79.2,59.0,29.35,SW,230,4.5,8.3,49,0.00,,,-99.99,wx200d/1.3,2013-06-17 21:49:00,
2013-06-17 17:54:00,79.5,59.0,29.35,SSW,192,0.0,5.8,51,0.00,,,-99.99,wx200d/1.3,2013-06-17 21:54:00,
2013-06-17 17:59:00,79.9,61.0,29.35,SW,217,0.0,3.1,50,0.00,,,-99.99,wx200d/1.3,2013-06-17 21:59:00,
2013-06-17 18:04:00,79.7,59.0,29.35,SSW,195,0.0,4.0,49,0.00,,,-99.99,wx200d/1.3,2013-06-17 22:04:00,
2013-06-17 18:09:00,79.0,59.0,29.32,SSW,197,0.0,0.0,51,0.00,,,-99.99,wx200d/1.3,2013-06-17 22:09:00,
2013-06-17 18:15:00,78.4,61.0,29.32,SSW,213,0.0,0.0,54,0.00,,,-99.99,wx200d/1.3,2013-06-17 22:15:00,
2013-06-17 18:20:00,78.1,63.0,29.32,SSW,197,0.0,0.0,56,0.00,,,-99.99,wx200d/1.3,2013-06-17 22:20:00,
2013-06-17 18:25:00,78.1,63.0,29.32,SSW,197,0.0,0.0,57,0.00,,,-99.99,wx200d/1.3,2013-06-17 22:25:00,
2013-06-17 18:30:00,78.3,63.0,29.32,SSE,151,0.0,0.0,58,0.00,,,-99.99,wx200d/1.3,2013-06-17 22:30:00,
2013-06-17 18:35:00,78.6,63.0,29.32,SSE,151,0.0,0.0,59,0.00,,,-99.99,wx200d/1.3,2013-06-17 22:35:00,
2013-06-17 18:40:00,79.2,63.0,29.32,SSE,151,0.0,0.0,59,0.00,,,-99.99,wx200d/1.3,2013-06-17 22:40:00,
2013-06-17 18:45:00,79.3,63.0,29.32,SSE,151,0.0,0.0,57,0.00,,,-99.99,wx200d/1.3,2013-06-17 22:45:00,
2013-06-17 18:50:00,79.7,64.0,29.32,SSE,151,0.0,0.0,56,0.00,,,-99.99,wx200d/1.3,2013-06-17 22:50:00,
2013-06-17 18:55:00,80.2,64.0,29.35,SSE,151,0.0,0.0,56,0.00,,,-99.99,wx200d/1.3,2013-06-17 22:55:00,
2013-06-17 19:00:00,80.1,63.0,29.35,SSE,152,0.0,0.0,53,0.00,,,-99.99,wx200d/1.3,2013-06-17 23:00:00,
2013-06-17 19:05:00,79.5,63.0,29.35,South,190,0.0,0.0,57,0.00,,,-99.99,wx200d/1.3,2013-06-17 23:05:00,
2013-06-17 19:10:00,78.8,63.0,29.35,South,190,0.0,0.0,58,0.00,,,-99.99,wx200d/1.3,2013-06-17 23:10:00,
2013-06-17 19:15:00,78.6,63.0,29.35,South,190,0.0,0.0,58,0.00,,,-99.99,wx200d/1.3,2013-06-17 23:15:00,
2013-06-17 19:20:00,78.4,63.0,29.35,South,189,0.0,0.0,59,0.00,,,-99.99,wx200d/1.3,2013-06-17 23:20:00,
2013-06-17 19:25:00,78.4,63.0,29.35,South,189,0.0,0.0,59,0.00,,,-99.99,wx200d/1.3,2013-06-17 23:25:00,
2013-06-17 19:30:00,78.4,64.0,29.35,South,190,0.0,0.0,60,0.00,,,-99.99,wx200d/1.3,2013-06-17 23:30:00,
2013-06-17 19:35:00,78.3,64.0,29.35,South,190,0.0,0.0,60,0.00,,,-99.99,wx200d/1.3,2013-06-17 23:35:00,
2013-06-17 19:40:00,78.1,63.0,29.35,South,186,0.0,0.0,59,0.00,,,-99.99,wx200d/1.3,2013-06-17 23:40:00,
2013-06-17 19:45:00,78.3,63.0,29.35,South,170,0.0,0.0,58,0.00,,,-99.99,wx200d/1.3,2013-06-17 23:45:00,
2013-06-17 19:50:00,77.9,64.0,29.35,ESE,105,0.0,0.0,60,0.00,,,-99.99,wx200d/1.3,2013-06-17 23:50:00,
2013-06-17 19:55:00,77.4,63.0,29.35,East,100,0.0,0.0,62,0.00,,,-99.99,wx200d/1.3,2013-06-17 23:55:00,
2013-06-17 20:00:00,77.0,64.0,29.35,ESE,108,0.0,0.0,65,0.00,,,-99.99,wx200d/1.3,2013-06-18 00:00:00,
2013-06-17 20:06:00,76.6,64.0,29.35,ESE,106,0.0,0.0,64,0.00,,,-99.99,wx200d/1.3,2013-06-18 00:06:00,
2013-06-17 20:11:00,76.3,63.0,29.35,ESE,106,0.0,0.0,61,0.00,,,-99.99,wx200d/1.3,2013-06-18 00:11:00,
2013-06-17 20:16:00,75.7,61.0,29.35,South,180,0.0,0.0,61,0.00,,,-99.99,wx200d/1.3,2013-06-18 00:16:00,
2013-06-17 20:21:00,75.7,61.0,29.35,South,180,0.0,0.0,61,0.00,,,-99.99,wx200d/1.3,2013-06-18 00:21:00,
2013-06-17 20:26:00,75.4,61.0,29.35,East,94,0.0,0.0,61,0.00,,,-99.99,wx200d/1.3,2013-06-18 00:26:00,
2013-06-17 20:31:00,75.0,61.0,29.35,East,89,0.0,0.0,60,0.00,,,-99.99,wx200d/1.3,2013-06-18 00:31:00,
2013-06-17 20:36:00,74.7,61.0,29.35,East,86,0.0,0.0,61,0.00,,,-99.99,wx200d/1.3,2013-06-18 00:36:00,
2013-06-17 20:41:00,74.5,61.0,29.35,ENE,70,0.0,0.0,61,0.00,,,-99.99,wx200d/1.3,2013-06-18 00:41:00,
2013-06-17 20:46:00,74.3,63.0,29.35,East,98,0.0,0.0,63,0.00,,,-99.99,wx200d/1.3,2013-06-18 00:46:00,
2013-06-17 20:51:00,73.9,61.0,29.35,East,98,0.0,0.0,63,0.00,,,-99.99,wx200d/1.3,2013-06-18 00:51:00,
2013-06-17 20:56:00,73.4,61.0,29.35,East,98,0.0,0.0,63,0.00,,,-99.99,wx200d/1.3,2013-06-18 00:56:00,
2013-06-17 21:01:00,73.8,61.0,29.35,East,98,0.0,0.0,66,0.00,,,-99.99,wx200d/1.3,2013-06-18 01:01:00,
2013-06-17 21:06:00,73.9,61.0,29.35,NE,39,0.0,0.0,65,0.00,,,-99.99,wx200d/1.3,2013-06-18 01:06:00,
2013-06-17 21:11:00,73.6,61.0,29.35,NE,42,0.0,0.0,65,0.00,,,-99.99,wx200d/1.3,2013-06-18 01:11:00,
2013-06-17 21:16:00,73.2,61.0,29.35,NE,42,0.0,0.0,65,0.00,,,-99.99,wx200d/1.3,2013-06-18 01:16:00,
2013-06-17 21:21:00,73.0,61.0,29.35,NE,42,0.0,0.0,65,0.00,,,-99.99,wx200d/1.3,2013-06-18 01:21:00,
2013-06-17 21:27:00,72.9,61.0,29.35,NE,42,0.0,0.0,66,0.00,,,-99.99,wx200d/1.3,2013-06-18 01:27:00,
2013-06-17 21:32:00,72.9,61.0,29.35,NE,42,0.0,0.0,66,0.00,,,-99.99,wx200d/1.3,2013-06-18 01:32:00,
2013-06-17 21:37:00,73.0,63.0,29.38,ESE,121,0.0,0.0,68,0.00,,,-99.99,wx200d/1.3,2013-06-18 01:37:00,
2013-06-17 21:42:00,73.6,63.0,29.38,ESE,121,0.0,0.0,69,0.00,,,-99.99,wx200d/1.3,2013-06-18 01:42:00,
2013-06-17 21:47:00,73.4,63.0,29.38,ESE,121,0.0,0.0,67,0.00,,,-99.99,wx200d/1.3,2013-06-18 01:47:00,
2013-06-17 21:52:00,73.2,63.0,29.38,ENE,76,0.0,0.0,68,0.00,,,-99.99,wx200d/1.3,2013-06-18 01:52:00,
2013-06-17 21:57:00,73.4,63.0,29.38,ENE,76,0.0,0.0,69,0.00,,,-99.99,wx200d/1.3,2013-06-18 01:57:00,
2013-06-17 22:02:00,73.2,63.0,29.38,East,79,0.0,0.0,69,0.00,,,-99.99,wx200d/1.3,2013-06-18 02:02:00,
2013-06-17 22:07:00,73.6,63.0,29.38,East,84,0.0,0.0,70,0.00,,,-99.99,wx200d/1.3,2013-06-18 02:07:00,
2013-06-17 22:12:00,73.8,63.0,29.38,SE,142,0.0,0.0,70,0.00,,,-99.99,wx200d/1.3,2013-06-18 02:12:00,
2013-06-17 22:17:00,73.2,63.0,29.38,ENE,60,0.0,0.0,68,0.00,,,-99.99,wx200d/1.3,2013-06-18 02:17:00,
2013-06-17 22:22:00,72.5,63.0,29.38,ENE,62,0.0,0.0,69,0.00,,,-99.99,wx200d/1.3,2013-06-18 02:22:00,
2013-06-17 22:27:00,72.1,61.0,29.38,NE,53,0.0,0.0,69,0.00,,,-99.99,wx200d/1.3,2013-06-18 02:27:00,
2013-06-17 22:32:00,72.3,61.0,29.38,South,180,0.0,0.0,71,0.00,,,-99.99,wx200d/1.3,2013-06-18 02:32:00,
2013-06-17 22:37:00,73.4,66.0,29.38,SW,224,0.0,0.0,76,0.00,,,-99.99,wx200d/1.3,2013-06-18 02:37:00,
2013-06-17 22:42:00,74.1,66.0,29.38,WNW,284,0.0,0.0,79,0.00,,,-99.99,wx200d/1.3,2013-06-18 02:42:00,
2013-06-17 22:48:00,73.9,66.0,29.38,North,356,0.0,0.0,77,0.00,,,-99.99,wx200d/1.3,2013-06-18 02:48:00,
2013-06-17 22:53:00,73.8,66.0,29.38,North,356,0.0,0.0,77,0.00,,,-99.99,wx200d/1.3,2013-06-18 02:53:00,
2013-06-17 22:58:00,73.9,66.0,29.38,South,180,0.0,0.0,77,0.00,,,-99.99,wx200d/1.3,2013-06-18 02:58:00,
2013-06-17 23:03:00,73.8,66.0,29.38,SSW,205,0.0,0.0,76,0.00,,,-99.99,wx200d/1.3,2013-06-18 03:03:00,
2013-06-17 23:08:00,73.9,66.0,29.38,SW,232,0.0,0.0,77,0.00,,,-99.99,wx200d/1.3,2013-06-18 03:08:00,
2013-06-17 23:13:00,73.8,66.0,29.38,North,9,0.0,0.0,76,0.00,,,-99.99,wx200d/1.3,2013-06-18 03:13:00,
2013-06-17 23:18:00,74.3,68.0,29.38,SSW,194,0.0,0.0,79,0.00,,,-99.99,wx200d/1.3,2013-06-18 03:18:00,
2013-06-17 23:23:00,74.7,68.0,29.38,SSW,193,5.8,8.7,78,0.00,,,-99.99,wx200d/1.3,2013-06-18 03:23:00,
2013-06-17 23:28:00,74.8,68.0,29.38,SSW,202,4.0,10.5,76,0.00,,,-99.99,wx200d/1.3,2013-06-18 03:28:00,
2013-06-17 23:33:00,74.8,66.0,29.38,SSE,166,4.9,9.2,74,0.00,,,-99.99,wx200d/1.3,2013-06-18 03:33:00,
2013-06-17 23:38:00,74.7,66.0,29.38,SSE,162,8.3,10.5,74,0.00,,,-99.99,wx200d/1.3,2013-06-18 03:38:00,
2013-06-17 23:43:00,74.7,66.0,29.38,SSW,200,6.3,12.1,73,0.00,,,-99.99,wx200d/1.3,2013-06-18 03:43:00,
2013-06-17 23:48:00,74.5,66.0,29.38,SE,146,7.4,12.1,73,0.00,,,-99.99,wx200d/1.3,2013-06-18 03:48:00,
2013-06-17 23:53:00,74.3,66.0,29.38,South,190,5.8,12.5,73,0.00,,,-99.99,wx200d/1.3,2013-06-18 03:53:00,
2013-06-17 23:58:00,74.1,64.0,29.38,SSW,193,7.8,11.6,74,0.00,,,-99.99,wx200d/1.3,2013-06-18 03:58:00,